Location: Fort Collins
(40.5850°N, 105.0840°W)
Time: 09:22:11
(UTC-06:00)

Daily predictions for brighter satellites

Satellite Brightness Start Highest point End
(mag) Time Altitude Azimuth Time Altitude Azimuth Time Altitude Azimuth
USA 229 DEB 3.8 21:00:01 10° SSW 21:06:46 60° ESE 21:13:38 10° NE
Cosmos 2322 Rocket 2.3 21:01:12 10° NNW 21:06:51 88° WSW 21:12:28 10° SSE
USA 229 3.8 21:00:08 10° SSW 21:06:52 59° ESE 21:13:44 10° NE
Cosmos 2228 Rocket 3.2 21:04:43 10° N 21:09:12 86° W 21:13:43 10° S
S3M 4.0 21:03:29 10° N 21:09:37 77° E 21:15:44 10° S
Cosmos 1655 Rocket 4.4 21:04:14 10° SSW 21:10:24 70° W 21:16:38 10° N
Cosmos 1743 Rocket 3.6 21:07:15 10° S 21:11:44 87° E 21:16:13 10° N
Cosmos 1980 Rocket 4.0 21:11:22 10° NW 21:16:08 28° WSW 21:20:55 10° SSW
SL-16 R/B 2.4 21:11:15 10° NNW 21:16:56 79° WSW 21:22:35 10° SSE
Cosmos 2360 Rocket 2.9 21:11:38 10° N 21:16:59 42° ENE 21:22:19 10° SE
ATLAS CENTAUR R/B 2.8 21:13:00 10° NW 21:17:08 36° WSW 21:20:56 10° S
Cosmos 1908 3.8 21:13:53 10° N 21:17:35 41° ENE 21:21:17 10° SSE
Cosmos 1500 Rocket 3.5 21:13:46 10° S 21:18:05 69° E 21:22:28 10° NNE
Cosmos 968 Rocket 3.8 21:14:01 10° SSW 21:19:11 75° WNW 21:24:26 10° NNE
In-Cosmos 22 4.4 21:14:22 10° S 21:20:08 89° W 21:25:56 10° N
Cosmos 2292 4.1 21:17:39 10° N 21:20:40 84° E 21:23:52 10° S
USA 186 4.1 21:22:37 10° SW 21:24:02 14° W 21:25:29 10° WNW
Cosmos 371 Rocket 3.9 21:20:00 10° NNW 21:24:43 57° WSW 21:29:25 10° S
deb Chang Zheng 4 3.6 21:21:05 10° NNE 21:25:27 87° ESE 21:29:47 10° SSW
Cosmos 1939 Rocket 2.8 21:24:21 10° SSE 21:28:18 90° E 21:32:14 10° NNW
ALOS 4.2 21:25:59 10° SSW 21:29:57 27° W 21:33:57 10° NW
Delta 2 Rocket 3.9 21:29:42 10° SW 21:32:46 27° S 21:35:08 13° ESE
Cosmos 1674 2.7 21:29:47 10° S 21:33:33 61° E 21:37:22 10° NNE
SPOT 5 2.8 21:34:33 10° SSE 21:39:02 72° ENE 21:43:47 10° N
Envisat 3.0 21:34:23 10° SSE 21:39:27 87° WSW 21:44:34 10° NNW
Tiangong 1 2.9 21:37:54 10° S 21:39:15 15° SSE 21:39:15 15° SSE
Cosmos 1300 4.0 21:40:47 10° NNE 21:44:00 25° ENE 21:46:04 16° ESE
Cosmos 1437 Rocket 2.9 21:40:45 10° NNW 21:44:33 70° W 21:48:21 10° S
Cosmos 1437 3.0 21:41:54 11° S 21:44:59 51° E 21:48:11 10° NNE
ERS-1 Rocket 4.0 21:41:22 10° S 21:46:08 44° W 21:50:58 10° NNW
Cosmos 1515 Rocket 4.2 21:41:57 10° NNW 21:46:18 55° W 21:50:36 10° S
Cosmos 1833 4.2 21:41:52 10° SSW 21:47:35 87° ESE 21:53:18 10° NNE
SL-23 DEB 4.4 21:43:41 10° NW 21:48:55 56° NNE 21:51:39 15° ESE
USA 245 3.4 21:48:00 21° ESE 21:49:04 28° ENE 21:51:12 10° NNE
Cosmos 2112 Rocket 4.3 21:44:05 10° N 21:49:14 56° ENE 21:53:12 17° SE
ATLAS 2AS CENTAUR R/B 4.4 21:48:09 12° ESE 21:49:52 13° E 21:53:10 10° ENE
Cosmos 2333 Rocket 4.2 21:47:04 10° N 21:50:45 17° NE 21:54:26 10° E
PSLV R/B 3.1 21:48:36 15° S 21:51:01 86° WSW 21:54:06 10° NNW
DELTA 2 R/B (1) 3.6 21:47:09 10° W 21:52:40 67° SSW 21:57:08 16° ESE
H-2A R/B 4.4 21:49:58 10° SSW 21:53:50 23° SE 22:05:37 10° E
AVUM R/B 3.8 21:52:02 10° SW 21:54:14 41° WNW 21:56:38 10° NNE
Cosmos 405 3.4 21:55:15 10° NNW 21:58:51 64° W 22:01:52 14° S
Sich 1 4.0 21:56:58 19° SE 21:59:14 31° E 22:03:07 10° NNE
Cosmos 2151 2.9 21:55:37 10° S 21:59:49 89° ESE 22:04:03 10° N
Cosmos 1633 Rocket 4.0 21:58:07 20° SE 22:00:13 30° E 22:04:02 10° NNE
YAOGAN 6 2.5 21:57:57 20° SSE 22:00:25 74° ENE 22:04:01 10° N
COSMOS 2428 3.2 21:57:33 10° NNW 22:03:04 48° ENE 22:06:47 20° SE
Cosmos 2315 Rocket 4.0 21:59:14 10° N 22:05:27 76° E 22:10:26 16° SSE
CZ-4C R/B 4.2 22:05:06 21° ESE 22:06:25 28° ENE 22:09:26 10° N
Cosmos 2266 Rocket 4.3 22:00:11 10° SSW 22:06:28 68° W 22:12:40 10° N
Cosmos 304 Rocket 3.8 22:02:29 10° NNW 22:07:19 80° WSW 22:10:43 19° SSE
Cosmos 1328 3.7 22:03:42 11° S 22:07:29 88° W 22:11:28 10° N
Cosmos 2297 Rocket 4.1 22:10:25 12° E 22:10:32 12° E 22:12:22 10° ENE
Cosmos 1151 Rocket 3.8 22:07:27 10° NNW 22:11:37 49° W 22:15:32 11° SSW
H-2A R/B 3.0 22:10:13 20° ESE 22:13:15 36° ENE 22:18:10 10° N
NOSS 3-1 (C) 3.4 22:08:27 10° SSW 22:14:08 59° ESE 22:20:25 10° NE
Cosmos 1805 Rocket 3.5 22:10:41 16° S 22:14:09 74° E 22:18:36 10° NNE
SWAS 4.4 22:12:41 10° NNW 22:17:02 88° ENE 22:19:19 28° SSE
Cosmos 2219 Rocket 3.2 22:14:14 10° N 22:19:16 33° ENE 22:22:26 19° ESE
Landsat 7 4.2 22:18:17 25° SE 22:20:43 49° ENE 22:25:18 10° N
ARGOS 3.1 22:18:34 22° SSE 22:22:11 84° ENE 22:27:37 10° NNW
Cosmos 2237 4.2 22:19:01 10° NNW 22:24:46 76° ENE 22:28:03 27° SSE
SPOT 1/Viking Rocket 3.6 22:21:45 20° S 22:25:19 76° WSW 22:30:30 10° NNW
Cosmos 2058 2.9 22:22:14 17° SSW 22:25:22 77° W 22:29:30 10° N
BREEZE-M DEB (TANK) 4.3 22:24:10 10° NNW 22:25:41 17° NNE 22:27:40 10° ENE
Cosmos 1680 Rocket 3.9 22:21:16 10° NNW 22:26:24 58° WSW 22:29:56 20° S
Cosmos 1244 Rocket 4.5 22:21:48 13° S 22:27:35 86° E 22:33:53 10° N
Cosmos 292 Rocket 4.4 22:25:41 10° N 22:30:13 42° ENE 22:32:10 28° ESE
H-2A R/B 4.5 22:27:17 10° SW 22:30:28 19° W 22:33:41 10° NW
CZ-4B R/B 4.0 22:27:38 10° N 22:32:52 65° WNW 22:38:00 10° SSW
Cosmos 1707 Rocket 3.5 22:28:39 10° N 22:33:02 81° W 22:35:13 29° S
SL-14 R/B 3.2 22:32:25 29° S 22:34:22 88° E 22:38:23 10° N
Nadezhda 1 Rocket 4.5 22:28:41 10° N 22:34:27 43° ENE 22:37:15 27° SE
Cosmos 1703 3.6 22:34:08 39° SE 22:35:00 46° E 22:38:45 10° NNE
Cosmos 1726 2.0 22:32:25 10° N 22:36:12 87° E 22:37:27 41° S
Cosmos 1666 Rocket 3.5 22:33:43 24° S 22:36:22 86° W 22:40:49 10° N
Terra 2.2 22:34:39 31° SE 22:36:35 49° ENE 22:41:10 10° N
Cosmos 1271 Rocket 3.0 22:33:49 10° N 22:37:34 52° E 22:38:28 41° SE
Cosmos 2219 3.5 22:32:06 10° SSW 22:37:49 69° WNW 22:43:34 10° NNE
Cosmos 1898 Rocket 3.4 22:36:30 21° S 22:40:02 74° ESE 22:45:14 10° NNE
Cosmos 2150 Rocket 4.0 22:37:35 18° SSW 22:41:40 78° ESE 22:47:09 10° NNE
Meteor 1-27 4.4 22:38:31 10° NNW 22:44:12 71° W 22:47:32 25° S
Cosmos 2333 4.2 22:39:10 10° NNW 22:44:55 82° ENE 22:47:37 33° SSE
Cosmos 1745 Rocket 4.0 22:42:07 27° SSE 22:45:31 64° E 22:51:38 10° NNE
BREEZE-M TANK 4.5 22:16:08 10° WSW 22:45:41 82° SSE 22:50:41 10° ENE
SL-08 R/B 4.4 22:43:02 25° S 22:46:53 76° E 22:53:09 10° N
Cosmos 858 Rocket 4.4 22:44:12 23° S 22:47:29 78° ESE 22:52:42 10° NNE
Cosmos 2237 Rocket 3.1 22:42:39 10° N 22:47:57 37° ENE 22:50:31 25° ESE
Cosmos 1470 Rocket 3.8 22:48:56 43° SE 22:49:47 50° E 22:53:59 10° NNE
Cosmos 220 Rocket 4.1 22:48:52 43° SSE 22:49:57 57° ESE 22:54:19 10° NNE
Cosmos 2082 4.3 22:49:10 33° SE 22:50:32 38° ESE 22:55:47 10° NE
Iridium 2 3.6 22:49:59 53° SSE 22:50:43 70° E 22:54:33 10° N
Cosmos 1933 Rocket 3.8 22:50:13 42° SE 22:51:12 51° E 22:55:32 10° NNE
OAO 2 Rocket 4.2 22:46:53 10° SW 22:50:41 31° S 22:50:41 31° S
CZ-4 R/B 4.5 22:46:48 10° N 22:51:39 57° WNW 22:55:45 14° SSW
IGS 5A 3.5 22:51:10 45° SE 22:52:11 63° ENE 22:56:20 10° N
DMSP B5D2-2 4.0 22:48:45 10° NNE 22:53:57 66° ESE 22:56:03 36° S
SeaSat 1 4.1 22:55:21 18° E 22:57:40 25° NE 23:01:38 10° N
Cosmos 2360 Rocket 3.7 22:56:04 10° NW 23:00:45 27° WSW 23:04:09 16° SSW
Meteor 1-4 Rocket 3.0 23:04:15 10° NNW 23:07:57 55° W 23:08:33 48° SW
USA 32 4.4 23:07:03 10° NNW 23:12:13 59° W 23:14:34 31° SSW
Meteor 2-10 4.3 23:07:18 10° NNW 23:13:01 78° W 23:15:17 39° S
Cosmos 1386 Rocket 4.3 23:12:00 38° S 23:14:28 79° E 23:20:29 10° N
Cosmos 1626 2.0 23:14:53 74° E 23:14:53 74° E 23:18:36 10° NNE
NOSS 0 Rocket 3.9 23:08:53 10° NNW 23:15:04 81° ENE 23:17:19 42° SSE
Cosmos 2242 Rocket 4.3 23:10:50 10° NNW 23:15:08 48° W 23:16:36 34° SW
NOSS 3-1 (A) 3.7 23:11:11 10° SW 23:17:02 68° NW 23:23:34 10° NNE
Cosmos 2227 Rocket 2.1 23:24:14 41° SSW 23:26:16 80° ESE 23:31:58 10° NNE
Cosmos 1862 Rocket 3.5 23:27:07 10° NNW 23:31:27 71° W 23:31:56 64° SW
FALCON 9 R/B 3.3 23:13:01 10° W 23:33:33 61° S 23:36:25 37° SE
COS B Rocket 4.1 23:31:14 10° NNE 23:34:14 39° ENE 23:34:14 39° ENE
Cosmos 2333 Rocket 2.2 23:29:57 10° NNW 23:35:44 81° WSW 23:37:11 52° S
ATLAS 2AS CENTAUR R/B 2.9 23:35:30 32° SSW 23:39:24 73° ESE 23:47:25 10° NE
SL-16 R/B 2.9 23:34:30 10° N 23:39:56 43° ENE 23:41:37 34° ESE
Cosmos 1937 Rocket 4.5 23:38:37 19° SW 23:42:03 43° WNW 23:47:01 10° N
Cosmos 1455 2.8 23:39:00 10° NNW 23:42:35 47° W 23:42:35 47° W
Cosmos 1869 3.5 23:39:16 10° NNW 23:43:16 61° W 23:43:18 61° W
COSMOS 2428 4.3 23:42:32 10° NW 23:46:57 24° WSW 23:48:48 20° SW
H-2A R/B 3.5 23:50:51 24° SW 23:52:40 29° W 23:57:19 10° NW
Cosmos 2297 Rocket 2.1 23:52:11 51° SSW 23:53:42 88° WNW 23:59:23 10° NNE
GEOS 3 Rocket 4.1 23:52:12 40° E 23:53:47 54° NE 23:58:50 10° NNW
Lacrosse 4 Rocket 2.3 23:51:19 10° NNW 23:55:32 41° ENE 23:55:55 40° ENE
